Bedford, MA

2:15 PM EST on February 14, 2016 (GMT -0500)
Hanscom

Weather History for KBED - March, 2013

Change the Weather History Date:

Friday, March 29, 2013

  Actual Average Record
Temperature  
Mean Temperature 42 °F -  
Max Temperature 55 °F 54 °F 78 °F (1981)
Min Temperature 28 °F 31 °F 10 °F (1959)
Degree Days  
Heating Degree Days 24    
Moisture  
Dew Point 29 °F    
Average Humidity 58    
Maximum Humidity 92    
Minimum Humidity 31    
Precipitation  
Precipitation 0.00 in - - ()
Sea Level Pressure  
Sea Level Pressure 30.05 in    
Wind  
Wind Speed 4 mph (WNW)    
Max Wind Speed 13 mph    
Max Gust Speed 22 mph    
Visibility 10 miles    
Events Rain    
Averages and records for this station are not official NWS values.
T = Trace of Precipitation, MM = Missing Value Source: NWS Daily Summary

Daily Weather History Graph

Daily Weather History Graph

Search for Another Location

Airport or City:

Trip Planner

Search our weather history database for the weather conditions in past years. The results will help you decide how hot, cold, wet, or windy it might be!

Date:

Astronomy

Mar. 29, 2013 Rise Set
Actual Time 6:32 AM EDT 7:07 PM EDT
Civil Twilight 6:04 AM EDT 7:36 PM EDT
Nautical Twilight 5:30 AM EDT 8:09 PM EDT
Astronomical Twilight 4:56 AM EDT 8:44 PM EDT
Moon 10:08 PM EDT (3/29) 7:35 AM EDT (3/29)
Length of Visible Light 13h 32m
Length of Day
12h 35m
Waning Gibbous, 93% of the Moon is Illuminated
Mar 29
Waning Gibbous
Apr 3
Last Quarter
Apr 10
New
Apr 18
First Quarter
Apr 25
Full

Hourly Weather History & Observations

Time (EDT) Temp. Windchill Dew Point Humidity Pressure Visibility Wind Dir Wind Speed Gust Speed Precip Events Conditions
12:56 AM 39.0 °F - 30.0 °F 70% 30.06 in 10.0 mi Calm Calm - N/A   Mostly Cloudy
1:56 AM 36.0 °F 33.3 °F 30.0 °F 79% 30.06 in 10.0 mi West 3.5 mph - N/A   Clear
2:56 AM 32.0 °F - 28.9 °F 88% 30.06 in 10.0 mi Calm Calm - N/A   Clear
3:56 AM 30.0 °F - 27.0 °F 88% 30.06 in 10.0 mi Calm Calm - N/A   Clear
4:56 AM 28.9 °F - 27.0 °F 92% 30.05 in 10.0 mi Calm Calm - N/A   Clear
5:56 AM 30.0 °F 25.2 °F 27.0 °F 88% 30.06 in 10.0 mi WSW 4.6 mph - N/A   Clear
6:56 AM 30.9 °F 27.5 °F 27.0 °F 85% 30.06 in 10.0 mi West 3.5 mph - N/A   Partly Cloudy
7:56 AM 37.9 °F 35.5 °F 30.9 °F 76% 30.07 in 10.0 mi WSW 3.5 mph - N/A   Partly Cloudy
8:56 AM 45.0 °F 39.3 °F 32.0 °F 60% 30.07 in 10.0 mi NW 11.5 mph - N/A   Mostly Cloudy
9:56 AM 46.9 °F - 30.9 °F 54% 30.08 in 10.0 mi NW 10.4 mph - N/A   Mostly Cloudy
10:19 AM 48.2 °F - 32.0 °F 54% 30.03 in 10.0 mi Variable 6.9 mph - N/A   Mostly Cloudy
10:56 AM 50.0 °F - 30.9 °F 48% 30.08 in 10.0 mi NW 9.2 mph - N/A   Mostly Cloudy
11:56 AM 51.1 °F - 30.9 °F 46% 30.07 in 10.0 mi WNW 5.8 mph - N/A   Mostly Cloudy
12:56 PM 55.0 °F - 30.0 °F 38% 30.04 in 10.0 mi West 6.9 mph - N/A   Partly Cloudy
1:56 PM 54.0 °F - 25.0 °F 33% 30.02 in 10.0 mi WSW 6.9 mph - N/A   Mostly Cloudy
2:56 PM 55.0 °F - 25.0 °F 31% 30.01 in 10.0 mi Variable 4.6 mph - 0.00 in   Mostly Cloudy
3:56 PM 55.0 °F - 26.1 °F 33% 30.00 in 10.0 mi WNW 10.4 mph - 0.00 in   Overcast
4:56 PM 53.1 °F - 26.1 °F 35% 30.01 in 10.0 mi West 12.7 mph 21.9 mph N/A   Mostly Cloudy
5:56 PM 51.1 °F - 30.0 °F 44% 30.02 in 10.0 mi NW 11.5 mph - 0.00 in Rain Light Rain
6:56 PM 48.9 °F - 28.9 °F 46% 30.03 in 10.0 mi NNW 3.5 mph - 0.00 in   Overcast
7:56 PM 46.9 °F - 27.0 °F 46% 30.04 in 10.0 mi WNW 10.4 mph - N/A   Mostly Cloudy
8:56 PM 45.0 °F 43.5 °F 27.0 °F 49% 30.06 in 10.0 mi NNW 3.5 mph - N/A   Mostly Cloudy
9:56 PM 44.1 °F 40.8 °F 30.0 °F 58% 30.08 in 10.0 mi NW 5.8 mph - N/A   Overcast
10:56 PM 43.0 °F 40.3 °F 30.0 °F 60% 30.08 in 10.0 mi NW 4.6 mph - N/A   Overcast
11:56 PM 43.0 °F 38.2 °F 30.0 °F 60% 30.08 in 10.0 mi WNW 8.1 mph - N/A   Overcast